sat.trackr.live / text

‹ back to catalog

STARLINK-6063

NORAD 56811 · 2023-078AW

PAYLOAD ACTIVE UNKNOWN

§ Identity

Operator
Country
US
Launch date
2023-05-31
Launch site
AFWTR
Launch vehicle
Mass (kg)
RCS (m²)

Purposes: comms

External: N2YO · Heavens-Above · Gunter

§ Orbital elements

Epoch: 2026-05-26T00:49:20.699040Z

Period
87.64 min
Inclination
69.9827°
Eccentricity
0.0014180
Mean motion
16.43000737 rev/d
Perigee alt
148.6 km
Apogee alt
167.1 km
Semi-major
6,536.0 km
B*
2.4829e-4
RAAN
75.6033°
Arg perigee
251.3950°
Mean anomaly
108.5743°
Rev number
16,608

§ Raw data

STARLINK-60631 56811U 23078AW  26146.03426735  .07085661  44052-5  24829-3 0  99912 56811  69.9827  75.6033 0014180 251.3950 108.5743 16.43000737166087

JSON: /api/v1/satellites/56811 · /tle

For live sub-satellite position, see the globe view (requires WebGL).

§ Visibility from observer

Set your observer location to see the next 7 days of passes ≥ 10°. The values pass through the URL so the page stays shareable.

No JS? Fill the form by hand. The geolocation button needs JavaScript.